GFSNE_con_3kmhel_237.txt.gz
Helicity
140 145 151 144 146 151 148 126 111 127 115 79 93 71 24 40 52 37 13 7 -51 135 82 69 86 182 122 398 357 300 241 154 175 150 210 123 111 189
146 139 137 134 131 147 149 145 139 124 140 106 66 43 33 50 85 49 53 13 8 -19 49 116 160 26 138 178 364 402 306 236 194 171 123 147 191 243
128 133 115 108 123 128 143 146 130 114 131 109 75 57 37 32 37 29 23 21 -6 2 12 -3 89 47 124 23 104 423 381 303 238 172 188 186 256 294
107 111 104 106 102 103 133 138 124 90 116 96 118 97 52 26 13 27 -7 26 13 -31 5 75 45 2 38 58 30 74 461 417 399 280 263 285 309 351
85 76 67 65 84 95 113 111 118 77 58 78 87 92 77 41 17 12 -8 -34 -3 -14 -5 32 55 47 -11 69 136 -19 101 596 414 488 417 381 358 411
72 71 70 85 99 92 98 108 105 90 59 71 90 87 91 58 38 24 15 -50 -34 -34 -7 25 37 23 35 8 95 102 266 461 620 549 654 483 599 653
74 72 79 89 90 107 128 144 144 135 112 102 88 98 101 67 52 16 -16 -15 -71 -92 -51 10 17 12 22 40 67 127 261 597 732 608 627 819 879 717
82 85 84 79 91 109 127 143 162 150 122 118 112 100 90 91 77 56 5 -23 -138 -104 -63 7 10 26 41 47 142 175 185 488 808 891 958 906 991 885
91 96 98 113 105 104 116 126 132 137 116 89 97 106 71 81 79 68 27 0 3 -35 -31 8 24 22 66 94 149 175 188 353 770 1015 1120 1080 1136 979
97 97 95 97 111 118 134 146 134 110 122 122 101 100 94 83 79 88 13 18 1 -15 8 -13 4 17 75 175 141 227 235 394 864 1177 1321 1512 1359 959
84 97 107 102 98 95 142 136 117 100 96 85 63 57 66 69 47 67 42 -3 -24 28 45 24 42 93 159 277 251 201 369 669 1084 1492 1668 1477 1259 643
81 92 94 105 106 99 120 83 87 91 85 51 65 54 55 55 57 51 7 -5 13 17 50 68 102 99 150 374 506 516 694 803 1280 1520 1538 1250 825 467
100 96 113 89 100 76 36 66 95 81 65 68 58 46 48 49 48 18 -10 -5 21 66 74 113 142 167 210 260 529 688 850 1011 1245 1542 1012 643 402 266
99 96 106 74 65 44 48 44 34 56 70 63 54 11 -11 -16 10 50 30 49 111 120 126 168 173 222 312 348 443 591 771 881 958 932 553 336 207 145
92 64 47 61 63 64 53 32 35 48 61 59 -50 -50 -33 -10 30 52 95 142 178 181 224 228 242 241 338 434 413 394 532 542 596 390 298 257 220 181
70 79 66 79 66 60 46 37 47 58 68 -44 -43 -54 -40 -18 30 55 79 103 140 192 254 246 254 340 404 427 493 480 473 432 318 291 257 240 192 151
71 78 62 72 53 50 48 45 55 25 -41 -53 -69 -51 -8 47 69 77 79 97 125 163 208 249 321 372 400 424 482 415 326 345 288 245 241 253 208 183
66 57 51 68 46 39 42 46 55 -33 -40 -42 -67 -54 -8 45 58 71 74 85 111 111 111 155 240 325 402 401 324 266 240 209 184 192 182 220 235 202
69 48 43 61 41 29 40 5 -19 -24 -40 -57 -56 -30 -16 3 20 47 64 60 62 57 44 30 45 121 179 241 264 204 135 161 199 223 209 186 171 130
70 58 44 52 38 15 37 34 -15 -17 -28 -41 -41 -26 -1 1 7 10 18 9 13 23 90 95 68 48 110 156 234 249 137 137 155 167 168 144 130 120
69 53 42 45 38 13 29 38 -2 -13 -11 -18 -12 -7 6 13 24 24 7 -9 -3 -9 27 89 107 54 62 149 206 171 170 146 95 83 66 62 60 52
77 57 42 35 36 27 24 42 12 -4 -1 8 13 17 24 26 24 26 32 28 48 39 63 56 41 28 35 96 118 112 117 108 132 151 144 96 50 43
60 62 44 28 29 34 26 37 29 18 16 27 25 28 40 47 42 40 45 50 53 58 32 36 31 11 12 25 56 56 82 73 57 70 104 146 138 143

GFSNE_con_3kmhel_243.txt.gz
Helicity
112 91 87 88 103 110 117 123 147 151 125 96 110 93 116 102 109 130 122 110 118 98 67 57 27 7 -0 13 69 118 233 85 252 212 168 200 158 165
95 90 86 96 105 116 118 121 135 181 177 130 108 108 112 126 131 144 122 127 91 75 77 51 20 -24 -21 -33 -21 -34 59 135 161 87 221 164 264 167
88 84 88 93 112 121 133 131 134 113 147 119 150 128 132 133 138 150 128 102 106 122 89 90 6 -27 -48 -41 -59 -67 -11 23 155 330 233 204 270 243
88 90 92 113 114 121 134 139 167 115 161 164 155 169 161 151 146 107 114 102 117 98 136 97 15 -9 -44 -35 -25 -34 -12 3 51 290 257 276 243 227
82 97 99 111 117 128 149 172 145 155 180 210 180 169 167 154 119 112 117 98 94 85 106 82 14 4 21 -24 -8 22 -7 -7 30 191 284 201 290 246
97 107 110 116 158 176 157 162 168 169 175 197 208 191 175 137 121 104 101 105 87 97 98 41 5 14 9 -12 -5 19 33 12 4 58 163 156 364 237
95 106 112 132 116 131 175 184 171 176 176 173 188 191 179 137 107 112 112 100 52 57 47 39 41 30 22 3 -10 33 22 51 61 39 -16 165 351 529
86 90 91 92 92 146 149 169 175 161 138 154 171 153 113 122 120 105 106 90 69 19 34 6 4 17 23 18 8 25 33 44 38 34 -0 355 428 402
87 87 101 110 127 132 142 154 135 135 132 139 119 123 125 113 118 120 103 71 29 25 -0 -32 -1 20 14 -29 4 43 45 53 58 16 50 408 489 519
68 89 110 128 124 131 128 132 133 122 122 98 99 104 114 110 101 115 101 22 33 6 21 -29 11 21 -3 -11 14 47 44 56 55 25 2 250 502 680
92 105 114 116 112 102 119 124 118 117 96 75 80 81 94 90 90 92 76 34 -12 4 18 23 5 1 -18 -17 -8 94 109 46 28 40 67 325 642 956
80 92 102 106 109 101 120 113 112 106 85 65 64 71 77 80 64 87 73 6 -9 -17 -15 7 -16 -33 -40 -37 18 105 93 32 23 90 220 467 936 1133
106 119 118 87 98 70 73 112 116 89 75 80 82 88 88 73 62 57 68 29 -8 6 38 23 1 -14 -12 -14 2 172 222 235 278 314 428 670 1011 1351
100 109 98 56 52 74 97 104 100 92 87 74 68 68 67 60 63 41 42 21 4 -9 -19 3 -1 -4 4 4 35 212 358 447 582 602 728 749 953 1135
96 82 55 51 63 85 84 79 100 83 78 68 65 73 82 74 48 36 35 33 1 16 24 30 16 11 20 42 104 236 393 517 629 715 804 1025 1350 1400
87 83 76 75 77 80 81 87 100 70 70 66 73 77 75 63 44 29 8 -4 -4 6 43 51 64 82 85 81 165 227 341 363 502 602 699 765 831 670
76 83 85 76 72 69 68 77 97 60 70 57 64 72 57 41 22 6 -6 -11 4 9 51 127 213 248 201 131 188 238 319 380 393 445 546 549 487 389
80 85 91 90 81 66 64 66 86 53 64 39 46 54 43 26 10 -1 -5 9 8 10 35 84 163 234 266 306 221 265 321 371 390 410 407 493 449 250
87 96 100 95 85 65 60 60 65 49 53 27 30 29 32 21 6 -6 5 18 24 25 27 42 69 130 198 238 187 236 293 262 263 331 325 309 255 207
97 112 105 97 86 67 52 45 44 49 49 30 2 16 22 13 -2 -0 14 17 29 36 26 12 25 80 142 175 194 169 229 191 208 239 249 249 223 198
101 106 109 97 88 76 55 45 39 41 45 39 -6 2 5 10 6 8 21 27 41 50 61 80 100 162 165 158 208 217 238 203 177 154 129 140 123 103
116 103 104 100 90 79 60 50 40 34 36 42 7 2 4 -0 -12 -8 -0 15 35 33 43 47 62 91 99 138 165 159 190 206 224 244 225 156 62 54
129 116 102 95 87 81 67 51 31 27 36 39 25 14 15 5 6 24 25 15 14 20 16 16 62 91 98 112 152 149 134 137 159 202 225 173 126 138

GFSNE_con_3kmhel_246.txt.gz
Helicity
171 139 130 110 103 110 122 135 164 182 190 160 151 92 100 126 135 134 123 141 127 135 99 130 92 90 58 47 26 -17 11 32 25 88 92 180 153 153
138 129 115 109 107 117 127 152 176 210 239 177 142 115 104 124 128 119 133 135 119 101 99 143 120 59 54 46 50 -24 9 27 9 103 138 90 25 284
120 109 110 108 119 130 142 153 167 222 248 193 177 157 117 84 102 85 82 84 101 120 89 122 92 91 45 43 42 -14 9 -4 14 31 111 102 180 292
117 112 108 116 120 137 158 193 202 215 244 238 178 145 123 86 64 74 75 92 111 105 71 69 95 104 46 22 32 23 -8 -25 0 3 80 99 118 146
118 126 115 128 148 169 155 161 173 203 233 237 191 161 142 126 101 110 98 77 83 86 69 95 86 72 13 18 27 2 -11 -27 -15 10 37 51 187 170
115 120 114 142 152 129 147 174 186 191 172 156 157 154 129 95 105 108 113 98 84 63 65 77 83 35 46 22 0 -4 6 -36 -38 -26 13 38 120 202
115 101 102 104 100 136 182 171 148 153 143 133 149 137 131 124 110 122 142 119 118 92 87 64 37 12 -36 -9 -2 15 13 -21 16 2 15 33 140 242
94 82 71 60 124 143 138 130 137 128 138 146 153 151 133 124 130 134 149 138 136 105 105 10 16 8 24 19 8 5 31 4 47 27 4 23 71 114
70 55 70 80 115 132 115 117 107 102 121 149 147 133 134 117 138 134 141 157 154 139 59 3 12 48 20 1 -8 8 30 14 49 50 33 2 23 92
74 83 82 108 125 120 126 138 120 108 127 150 136 137 133 123 126 137 134 146 144 104 61 0 -2 12 -2 -11 -27 13 24 40 64 38 21 -15 37 444
66 67 88 112 87 79 124 105 95 101 122 110 101 93 68 80 101 112 139 135 81 53 82 -19 17 -31 -38 -55 -59 15 60 81 36 3 3 -41 202 638
60 50 77 86 82 99 100 102 109 99 113 109 93 90 93 94 76 109 115 114 80 39 53 33 -5 -63 -84 -42 -87 -21 83 172 34 -2 42 79 461 883
53 76 95 80 56 71 81 111 122 119 115 122 110 118 92 94 107 123 95 77 33 18 -30 -44 -14 -52 -70 -43 -39 11 112 201 179 109 132 166 269 408
69 89 90 48 56 82 87 74 68 94 130 113 109 102 88 97 120 95 76 60 39 -31 -24 -40 -28 -52 -37 -45 -39 35 161 297 315 345 470 646 740 705
77 76 47 50 64 81 68 66 81 94 109 92 90 91 100 109 100 66 48 52 42 -12 -23 -30 -40 -20 -4 0 9 56 133 326 437 484 591 733 917 1105
73 62 59 59 71 76 79 78 87 92 107 86 81 88 90 89 73 56 46 34 12 -23 -5 14 30 46 44 37 45 63 101 141 371 527 691 810 930 1142
41 42 52 71 77 80 80 84 84 78 98 79 80 70 60 62 54 35 21 16 -2 1 21 34 94 104 88 47 68 124 172 222 286 426 583 734 781 871
38 25 50 73 72 84 85 80 76 69 66 64 67 62 42 45 47 25 10 7 2 -2 14 27 44 78 91 191 218 187 265 274 269 328 393 507 511 419
43 44 62 74 75 100 107 93 89 82 64 58 51 49 24 36 27 18 4 2 4 12 7 42 67 64 81 122 178 252 263 258 298 367 357 383 379 312
64 58 68 75 85 98 112 104 90 85 67 70 55 44 11 24 25 16 10 9 16 20 12 14 42 93 113 117 184 174 183 169 196 235 279 316 276 187
87 88 87 85 88 103 111 106 93 87 71 49 65 52 18 11 27 22 20 30 41 31 47 70 89 140 117 164 167 149 160 201 209 188 155 194 175 174
105 111 99 94 93 95 110 103 88 72 66 53 52 39 36 3 17 18 10 33 47 45 55 68 91 128 136 149 149 119 152 219 242 219 191 133 72 41
128 134 115 107 102 98 96 98 89 72 64 56 50 43 49 9 11 36 47 34 29 43 33 22 81 129 108 104 101 120 133 154 191 227 266 213 75 94

GFSNE_con_3kmhel_249.txt.gz
Helicity
156 164 170 183 186 166 146 148 166 193 181 153 183 159 134 147 116 104 88 72 70 80 82 85 108 132 100 132 83 36 30 51 24 21 35 42 31 73
159 185 203 196 176 147 133 127 140 177 248 216 174 155 152 140 120 117 102 76 86 98 116 137 176 157 142 121 93 31 26 21 19 26 41 48 42 75
197 232 223 191 160 145 149 155 156 164 197 188 191 169 140 124 125 120 108 105 100 78 78 102 110 130 135 120 86 35 24 16 28 15 20 32 46 53
237 236 235 180 174 149 132 132 138 168 213 203 172 152 138 114 91 87 94 112 102 76 70 55 50 75 104 89 125 72 31 12 -9 -15 -6 -3 26 71
219 207 179 158 142 114 115 139 157 186 191 199 174 151 137 105 97 121 110 90 101 54 53 66 58 74 84 -0 40 21 -11 -34 -22 -10 -19 -23 6 63
196 173 158 137 121 136 132 131 149 155 151 164 164 154 135 110 134 133 122 114 111 106 87 73 61 50 16 34 28 -20 -64 -40 -12 -5 -12 -3 27 46
178 148 122 99 111 129 121 120 130 145 135 133 152 144 126 128 146 144 145 126 114 125 98 109 105 87 70 17 -1 -28 -10 -8 -0 34 15 41 24 50
146 102 77 62 86 98 101 94 94 131 126 138 146 137 143 152 151 148 144 134 139 129 114 121 104 64 -12 -24 24 30 -5 3 28 60 55 63 29 64
106 86 78 83 88 90 87 90 99 79 91 137 136 133 148 139 152 148 136 164 179 154 115 91 111 28 -7 3 16 -19 -8 26 62 70 83 67 31 54
101 84 77 72 76 92 110 106 91 101 110 132 137 148 148 140 142 153 161 184 191 149 112 85 26 5 20 34 -32 -5 10 43 99 62 61 48 11 25
98 82 72 71 79 108 90 87 95 97 105 78 93 87 70 88 121 156 160 172 143 92 69 61 72 -11 18 11 -31 -3 20 74 87 43 13 11 7 -3
78 64 68 77 77 70 86 81 76 77 87 89 92 100 97 127 103 136 151 150 126 57 81 -35 3 -87 -33 1 -10 -52 14 93 137 77 18 30 -37 131
58 44 47 70 70 63 64 78 82 76 83 97 101 105 104 121 133 131 123 124 107 108 77 2 23 -11 -20 44 27 -30 4 101 142 108 100 84 48 318
48 43 47 58 59 55 64 73 66 75 89 89 87 87 86 99 102 113 82 86 83 90 84 26 29 -20 -2 23 11 8 27 153 246 230 186 348 534 571
51 50 16 19 58 80 70 73 75 82 78 91 91 88 90 106 96 83 76 74 63 49 40 37 -3 -37 -50 -40 -20 25 27 161 320 335 457 353 641 799
52 35 12 -9 38 44 71 83 93 95 81 86 94 97 98 93 74 74 74 48 39 30 17 42 40 -14 -34 -30 -16 18 85 73 293 410 542 764 800 812
46 53 35 18 23 39 60 69 85 102 95 93 89 88 75 77 63 60 64 32 35 11 -2 2 6 32 69 36 32 74 109 174 305 386 541 732 871 940
64 51 35 39 29 26 40 56 70 86 98 91 92 91 69 61 43 41 53 36 29 14 8 -8 4 19 34 78 152 116 161 186 247 297 408 639 731 789
58 47 53 54 46 38 42 56 67 86 97 102 106 91 69 60 33 23 42 39 27 27 22 12 27 54 74 71 120 195 176 232 285 353 337 410 446 441
64 66 68 66 68 59 49 54 69 81 92 92 84 76 73 51 34 20 33 42 34 26 23 39 52 73 64 41 80 141 108 122 216 250 293 341 350 278
88 93 94 93 80 68 58 59 69 73 83 85 81 70 66 46 27 14 29 36 43 34 55 48 28 70 54 77 100 154 189 178 189 195 220 297 295 276
90 89 108 113 103 97 90 85 82 84 93 93 90 72 72 49 22 -1 26 63 48 54 55 76 67 94 106 123 100 73 118 181 205 191 156 139 121 134
93 106 136 123 118 112 110 107 105 104 104 95 67 68 66 55 19 20 44 51 62 68 73 82 59 88 121 139 107 98 114 153 185 214 224 67 65 115